Weather History for Land O' Lakes, WI

Change the Weather History Date:

Tuesday, June 4, 2013

  Actual Average (KEGV) Record (KEGV)
Temperature  
Mean Temperature 47 °F -  
Max Temperature 63 °F 70 °F 82 °F (2011)
Min Temperature 31 °F 46 °F 32 °F (1998)
Degree Days  
Heating Degree Days 18    
Moisture  
Dew Point 37 °F    
Average Humidity 69    
Maximum Humidity 100    
Minimum Humidity 34    
Precipitation  
Precipitation 0.00 in - - ()
Sea Level Pressure  
Sea Level Pressure 30.18 in    
Wind  
Wind Speed 2 mph (SE)    
Max Wind Speed 9 mph    
Max Gust Speed -    
Visibility 10 miles    
Events Rain    
Averages and records for this station are not official NWS values.
T = Trace of Precipitation, MM = Missing Value Source: NWS Daily Summary

Daily Weather History Graph

Daily Weather History Graph

Search for Another Location

Airport:

Trip Planner

Search our weather history database for the weather conditions in past years. The results will help you decide how hot, cold, wet, or windy it might be!

Date:

Astronomy

Jun. 04, 2013 Rise Set
Actual Time 5:07 AM CDT 8:43 PM CDT
Civil Twilight 4:29 AM CDT 9:21 PM CDT
Nautical Twilight 3:38 AM CDT 10:12 PM CDT
Astronomical Twilight 2:31 AM CDT 11:20 PM CDT
Moon 2:48 AM CDT (6/4) 5:03 PM CDT (6/4)
Length of Visible Light 16h 52m
Length of Day
15h 36m
Waning Crescent, 14% of the Moon is Illuminated
Jun 4
Waning Crescent
Jun 8
New
Jun 16
First Quarter
Jun 23
Full
Jun 29
Last Quarter

Hourly Weather History & Observations

Time (CDT) Temp. Dew Point Humidity Pressure Visibility Wind Dir Wind Speed Gust Speed Precip Events Conditions
12:15 AM 40.5 °F 38.5 °F 93% 30.14 in 10.0 mi Calm Calm - N/A   Clear
12:35 AM 38.5 °F 36.9 °F 94% 30.15 in 10.0 mi Calm Calm - N/A   Clear
12:55 AM 37.0 °F 36.0 °F 96% 30.16 in 10.0 mi Calm Calm - N/A   Clear
1:15 AM 36.7 °F 35.6 °F 96% 30.15 in 10.0 mi Calm Calm - N/A   Clear
1:35 AM 35.8 °F 34.7 °F 96% 30.15 in 10.0 mi Calm Calm - N/A   Clear
1:55 AM 35.1 °F 34.3 °F 97% 30.14 in 10.0 mi Calm Calm - N/A   Clear
2:15 AM 34.7 °F 34.0 °F 97% 30.15 in 10.0 mi Calm Calm - N/A   Clear
2:35 AM 32.9 °F 32.2 °F 97% 30.15 in 10.0 mi Calm Calm - N/A   Clear
2:55 AM 33.4 °F 33.1 °F 99% 30.15 in 10.0 mi Calm Calm - N/A   Clear
3:15 AM 32.4 °F 32.0 °F 99% 30.15 in 10.0 mi Calm Calm - N/A   Clear
3:35 AM 32.2 °F 32.0 °F 99% 30.15 in 10.0 mi Calm Calm - N/A   Clear
3:55 AM 31.6 °F 31.1 °F 98% 30.15 in 10.0 mi Calm Calm - N/A   Clear
4:15 AM 31.6 °F 31.3 °F 99% 30.15 in 10.0 mi Calm Calm - N/A   Clear
4:35 AM 32.0 °F 32.0 °F 100% 30.17 in 10.0 mi Calm Calm - N/A   Clear
4:55 AM 33.8 °F 33.6 °F 99% 30.17 in 10.0 mi Calm Calm - N/A   Clear
5:15 AM 32.9 °F 32.4 °F 98% 30.19 in 10.0 mi Calm Calm - N/A   Clear
5:35 AM 34.5 °F 34.2 °F 99% 30.20 in 10.0 mi Calm Calm - N/A   Clear
5:55 AM 35.6 °F 35.2 °F 99% 30.20 in 10.0 mi Calm Calm - N/A   Scattered Clouds
6:15 AM 38.8 °F 38.1 °F 97% 30.19 in 10.0 mi Calm Calm - N/A   Scattered Clouds
6:35 AM 40.5 °F 38.7 °F 93% 30.19 in 10.0 mi Calm Calm - N/A   Mostly Cloudy
6:55 AM 42.6 °F 39.9 °F 90% 30.19 in 10.0 mi Calm Calm - N/A   Overcast
7:15 AM 44.1 °F 40.8 °F 88% 30.18 in 10.0 mi Calm Calm - N/A   Overcast
7:35 AM 45.7 °F 41.2 °F 84% 30.20 in 10.0 mi Calm Calm - N/A   Overcast
7:55 AM 47.7 °F 40.8 °F 77% 30.19 in 10.0 mi Calm Calm - N/A   Overcast
8:15 AM 48.2 °F 40.6 °F 75% 30.18 in 10.0 mi ESE 3.5 mph - N/A   Overcast
8:35 AM 48.7 °F 39.2 °F 70% 30.18 in 10.0 mi Calm Calm - N/A   Overcast
8:55 AM 49.6 °F 36.7 °F 61% 30.20 in 10.0 mi SSE 3.5 mph - N/A   Overcast
9:15 AM 50.2 °F 35.2 °F 57% 30.20 in 10.0 mi Calm Calm - N/A   Overcast
9:35 AM 50.5 °F 34.9 °F 55% 30.20 in 10.0 mi ESE 3.5 mph - N/A   Overcast
9:55 AM 52.2 °F 34.7 °F 51% 30.20 in 10.0 mi SE 5.8 mph - N/A   Overcast
10:15 AM 52.2 °F 32.4 °F 47% 30.20 in 10.0 mi SE 4.6 mph - N/A   Overcast
10:35 AM 52.7 °F 31.3 °F 44% 30.21 in 10.0 mi SSE 4.6 mph - N/A   Overcast
10:55 AM 53.8 °F 30.7 °F 41% 30.22 in 10.0 mi SE 5.8 mph - N/A   Overcast
11:15 AM 55.6 °F 29.7 °F 37% 30.22 in 10.0 mi SE 4.6 mph - N/A   Overcast
11:35 AM 57.2 °F 30.7 °F 37% 30.21 in 10.0 mi ESE 8.1 mph - N/A   Scattered Clouds
11:55 AM 58.6 °F 31.3 °F 36% 30.21 in 10.0 mi SE 8.1 mph - N/A   Clear
12:15 PM 59.4 °F 31.8 °F 35% 30.21 in 10.0 mi ESE 8.1 mph - N/A   Clear
12:35 PM 59.9 °F 31.8 °F 35% 30.20 in 10.0 mi ESE 5.8 mph - N/A   Mostly Cloudy
12:55 PM 59.5 °F 32.5 °F 36% 30.20 in 10.0 mi SSE 5.8 mph - N/A   Mostly Cloudy
1:15 PM 61.5 °F 32.9 °F 34% 30.20 in 10.0 mi South 6.9 mph - N/A   Mostly Cloudy
1:35 PM 60.3 °F 33.4 °F 37% 30.20 in 10.0 mi ESE 5.8 mph - N/A   Mostly Cloudy
1:55 PM 60.3 °F 34.3 °F 38% 30.20 in 10.0 mi ESE 4.6 mph - N/A   Overcast
2:15 PM 60.4 °F 34.3 °F 38% 30.19 in 10.0 mi SE 8.1 mph - N/A   Overcast
2:35 PM 61.0 °F 34.3 °F 37% 30.19 in 10.0 mi ESE 5.8 mph - N/A   Overcast
2:55 PM 63.0 °F 34.9 °F 35% 30.18 in 10.0 mi SE 9.2 mph - N/A   Overcast
3:15 PM 62.4 °F 35.1 °F 36% 30.18 in 10.0 mi South 8.1 mph - N/A   Overcast
3:35 PM 62.6 °F 35.2 °F 36% 30.18 in 10.0 mi SE 9.2 mph - N/A   Overcast
3:55 PM 61.0 °F 36.1 °F 40% 30.18 in 10.0 mi SSE 9.2 mph - N/A   Overcast
4:15 PM 59.7 °F 36.9 °F 43% 30.18 in 10.0 mi South 5.8 mph - N/A   Overcast
4:35 PM 58.5 °F 36.5 °F 44% 30.18 in 10.0 mi South 5.8 mph - N/A   Overcast
4:55 PM 58.1 °F 39.0 °F 49% 30.19 in 10.0 mi South 4.6 mph - N/A Rain Light Rain
5:15 PM 58.1 °F 39.9 °F 51% 30.19 in 10.0 mi South 5.8 mph - N/A Rain Light Rain
5:35 PM 56.8 °F 40.8 °F 55% 30.19 in 10.0 mi South 5.8 mph - N/A   Light Drizzle
5:55 PM 55.9 °F 41.7 °F 59% 30.20 in 10.0 mi South 4.6 mph - N/A Rain Light Rain
6:15 PM 55.4 °F 43.0 °F 63% 30.19 in 10.0 mi South 3.5 mph - N/A Rain Light Rain
6:35 PM 54.9 °F 43.7 °F 66% 30.19 in 10.0 mi SE 4.6 mph - N/A   Overcast
6:55 PM 54.5 °F 43.7 °F 67% 30.19 in 10.0 mi South 3.5 mph - N/A   Overcast
7:15 PM 54.3 °F 43.7 °F 67% 30.19 in 10.0 mi SSE 3.5 mph - N/A   Overcast
7:35 PM 54.0 °F 44.1 °F 69% 30.19 in 10.0 mi Calm Calm - N/A   Overcast
7:55 PM 54.0 °F 44.1 °F 69% 30.19 in 10.0 mi SSE 4.6 mph - N/A   Overcast
8:15 PM 53.2 °F 44.1 °F 71% 30.19 in 10.0 mi SE 3.5 mph - N/A   Overcast
8:35 PM 52.7 °F 44.4 °F 73% 30.18 in 10.0 mi SE 3.5 mph - N/A   Overcast
8:55 PM 52.2 °F 44.4 °F 75% 30.18 in 10.0 mi Calm Calm - N/A   Overcast
9:15 PM 51.8 °F 44.6 °F 76% 30.19 in 10.0 mi Calm Calm - N/A   Overcast
9:35 PM 51.4 °F 44.4 °F 77% 30.19 in 10.0 mi Calm Calm - N/A   Overcast
9:55 PM 51.6 °F 44.1 °F 75% 30.20 in 10.0 mi East 3.5 mph - N/A   Overcast
10:15 PM 51.3 °F 44.1 °F 76% 30.19 in 10.0 mi Calm Calm - N/A   Overcast
10:35 PM 50.9 °F 44.4 °F 78% 30.20 in 10.0 mi Calm Calm - N/A   Overcast
10:55 PM 50.9 °F 43.9 °F 77% 30.19 in 10.0 mi Calm Calm - N/A   Overcast
11:15 PM 50.5 °F 43.7 °F 77% 30.19 in 10.0 mi Calm Calm - N/A   Overcast
11:35 PM 50.5 °F 43.9 °F 78% 30.20 in 10.0 mi Calm Calm - N/A Rain Light Rain
11:55 PM 49.5 °F 45.1 °F 85% 30.20 in 7.0 mi Calm Calm - N/A Rain Light Rain